TimeCEST,TemperatureF,Dew PointF,Humidity,Sea Level PressureIn,VisibilityMPH,Wind Direction,Wind SpeedMPH,Gust SpeedMPH,PrecipitationIn,Events,Conditions,WindDirDegrees,DateUTC
12:25 AM,48.2,46.4,93,29.65,6.2,ESE,5.8,-,N/A,,Unknown,110,2013-05-14 22:25:00
12:55 AM,48.2,46.4,93,29.62,5.0,ESE,6.9,-,N/A,,Overcast,120,2013-05-14 22:55:00
1:25 AM,50.0,46.4,87,29.62,5.0,SE,6.9,-,N/A,,Unknown,130,2013-05-14 23:25:00
1:55 AM,50.0,46.4,87,29.59,6.2,ESE,5.8,-,N/A,,Partly Cloudy,120,2013-05-14 23:55:00
2:00 AM,50,46,81,29.60,6,ESE,6.7,,,,Partly Cloudy,120,2013-05-15 00:00:00
2:25 AM,50.0,46.4,87,29.59,5.6,ESE,6.9,-,N/A,,Unknown,120,2013-05-15 00:25:00
2:55 AM,50.0,46.4,87,29.56,5.0,ESE,8.1,-,N/A,,Unknown,120,2013-05-15 00:55:00
3:25 AM,50.0,46.4,87,29.53,5.0,ESE,9.2,-,N/A,,Partly Cloudy,110,2013-05-15 01:25:00
3:55 AM,50.0,46.4,87,29.53,5.0,ESE,6.9,-,N/A,,Unknown,110,2013-05-15 01:55:00
4:25 AM,50.0,46.4,87,29.50,5.6,ESE,6.9,-,N/A,,Unknown,110,2013-05-15 02:25:00
4:55 AM,50.0,46.4,87,29.50,6.2,ESE,9.2,-,N/A,,Partly Cloudy,110,2013-05-15 02:55:00
5:00 AM,49,46,85,29.52,6,ESE,8.9,,,,Overcast,110,2013-05-15 03:00:00
5:25 AM,48.2,46.4,93,29.50,6.2,ESE,9.2,-,N/A,,Unknown,110,2013-05-15 03:25:00
5:55 AM,50.0,46.4,87,29.50,6.2,SE,6.9,-,N/A,,Unknown,130,2013-05-15 03:55:00
6:25 AM,50.0,46.4,87,29.47,6.2,SE,8.1,-,N/A,,Unknown,130,2013-05-15 04:25:00
6:55 AM,50.0,46.4,87,29.47,6.2,SE,6.9,-,N/A,,Unknown,140,2013-05-15 04:55:00
7:25 AM,50.0,46.4,87,29.47,6.2,SE,8.1,-,N/A,,Unknown,130,2013-05-15 05:25:00
7:55 AM,51.8,46.4,82,29.47,6.2,SE,8.1,-,N/A,,Scattered Clouds,130,2013-05-15 05:55:00
8:00 AM,51,47,80,29.49,9,SE,8.9,,,,Partly Cloudy,130,2013-05-15 06:00:00
8:25 AM,53.6,48.2,82,29.47,6.2,SE,8.1,-,N/A,,Unknown,130,2013-05-15 06:25:00
8:55 AM,53.6,48.2,82,29.47,6.2,SSE,9.2,-,N/A,,Overcast,150,2013-05-15 06:55:00
9:25 AM,57.2,50.0,77,29.47,6.2,SSE,9.2,-,N/A,,Unknown,160,2013-05-15 07:25:00
9:55 AM,59.0,50.0,72,29.47,6.2,South,12.7,-,N/A,,Unknown,180,2013-05-15 07:55:00
10:25 AM,60.8,51.8,72,29.47,6.2,South,16.1,-,N/A,,Scattered Clouds,190,2013-05-15 08:25:00
10:55 AM,59.0,51.8,77,29.47,6.2,South,17.3,-,N/A,,Scattered Clouds,190,2013-05-15 08:55:00
11:00 AM,59,50,65,29.49,19,SSW,15.7,,,,Overcast,200,2013-05-15 09:00:00
11:25 AM,60.8,51.8,72,29.47,6.2,SSW,15.0,-,N/A,,Scattered Clouds,200,2013-05-15 09:25:00
11:55 AM,59.0,50.0,72,29.47,6.2,SSW,15.0,-,N/A,,Overcast,210,2013-05-15 09:55:00
12:25 PM,59.0,48.2,67,29.47,6.2,SSW,16.1,-,N/A,,Scattered Clouds,200,2013-05-15 10:25:00
12:55 PM,57.2,48.2,72,29.47,6.2,SSW,13.8,-,N/A,Rain,Light Rain,200,2013-05-15 10:55:00
1:25 PM,57.2,50.0,77,29.50,6.2,South,12.7,-,N/A,Rain,Heavy Drizzle,180,2013-05-15 11:25:00
1:55 PM,57.2,51.8,82,29.50,6.2,South,10.4,-,N/A,Rain,Light Drizzle,180,2013-05-15 11:55:00
2:00 PM,56,51,77,29.52,14,South,11.2,,,Rain,Light Rain,180,2013-05-15 12:00:00
2:25 PM,55.4,51.8,88,29.50,6.2,South,12.7,-,N/A,Rain,Heavy Drizzle,170,2013-05-15 12:25:00
2:55 PM,55.4,51.8,88,29.50,6.2,South,9.2,-,N/A,,Mostly Cloudy,190,2013-05-15 12:55:00
3:25 PM,55.4,51.8,88,29.50,6.2,South,9.2,-,N/A,,Mostly Cloudy,190,2013-05-15 13:25:00
3:55 PM,55.4,51.8,88,29.53,6.2,South,9.2,-,N/A,Rain,Light Rain,180,2013-05-15 13:55:00
4:25 PM,55.4,50.0,82,29.53,6.2,South,10.4,-,N/A,,Light Drizzle,180,2013-05-15 14:25:00
4:55 PM,55.4,50.0,82,29.53,6.2,South,9.2,-,N/A,,Partly Cloudy,170,2013-05-15 14:55:00
5:00 PM,56,50,75,29.54,22,South,8.9,,,Rain,Drizzle,180,2013-05-15 15:00:00
5:25 PM,57.2,50.0,77,29.53,6.2,South,9.2,-,N/A,,Unknown,180,2013-05-15 15:25:00
5:55 PM,59.0,51.8,77,29.53,6.2,South,9.2,-,N/A,,Unknown,180,2013-05-15 15:55:00
6:25 PM,59.0,51.8,77,29.53,6.2,South,11.5,-,N/A,,Partly Cloudy,190,2013-05-15 16:25:00
6:55 PM,59.0,50.0,72,29.53,6.2,SSW,12.7,-,N/A,,Unknown,200,2013-05-15 16:55:00
7:25 PM,57.2,48.2,72,29.53,6.2,SSW,11.5,-,N/A,,Unknown,200,2013-05-15 17:25:00
7:55 PM,57.2,48.2,72,29.53,6.2,South,5.8,-,N/A,,Unknown,190,2013-05-15 17:55:00
8:00 PM,57,49,65,29.54,28,South,6.7,,,,Partly Cloudy,190,2013-05-15 18:00:00
8:25 PM,57.2,50.0,77,29.53,6.2,South,4.6,-,N/A,,Scattered Clouds,180,2013-05-15 18:25:00
8:55 PM,57.2,48.2,72,29.53,6.2,West,5.8,-,N/A,,Partly Cloudy,260,2013-05-15 18:55:00
9:25 PM,55.4,44.6,67,29.56,6.2,West,6.9,-,N/A,,Unknown,260,2013-05-15 19:25:00
9:55 PM,53.6,44.6,72,29.56,6.2,West,6.9,-,N/A,,Unknown,280,2013-05-15 19:55:00
10:25 PM,50.0,44.6,82,29.59,6.2,WNW,1.2,-,N/A,,Unknown,290,2013-05-15 20:25:00
10:55 PM,48.2,44.6,87,29.59,6.2,WNW,1.2,-,N/A,,Unknown,290,2013-05-15 20:55:00
11:25 PM,46.4,44.6,93,29.62,6.2,WNW,1.2,-,N/A,,Unknown,290,2013-05-15 21:25:00
11:55 PM,46.4,44.6,93,29.62,6.2,WSW,2.3,-,N/A,,Unknown,240,2013-05-15 21:55:00